Alkin Kalkavan — TCOL6 — position and weather

sailwx.info

Track history (hours):
 
Tides and Currents Weather Stations Pressure Air Temp Water Temp Dewpoint Dewpoint Depression Visibility Wind Speed Wind Dir Waves Ship Positions

Alkin Kalkavan

Last reported at 2014-Oct-19 16:29 UTC. Time now 2014-Oct-22 00:09 UTC.
Position N 39°56' E 025°53'.

Length 150 m; draft 7.6 m.

Type: Ship. MMSI: 271000905.

Date/timePositionNaut miles runAvg speedWind from/ knotsBaromVisibWave heightAir tempDewpointWater temp
2014-Oct-19 16:29N 39°56' E 025°53'12914.4
2014-Oct-19 07:32N 40°40' E 028°31'1414.8
2014-Oct-19 06:33N 40°41' E 028°50'1515.0
2014-Oct-19 05:34N 40°43' E 029°10'1313.0
2014-Oct-19 04:33N 40°45' E 029°27'12 1.7
2014-Oct-18 21:26N 40°46' E 029°43'9 9.4
2014-Oct-18 20:29N 40°45' E 029°31'1010.4
2014-Oct-18 19:33N 40°43' E 029°19'1414.3
2014-Oct-18 18:34N 40°46' E 029°00'1414.0
2014-Oct-18 17:33N 40°51' E 028°43'  
2014-Oct-16 03:33N 39°09' E 025°46'1515.2
2014-Oct-16 02:33N 38°54' E 025°46'1515.4
2014-Oct-16 01:33N 38°39' E 025°47'1615.4
2014-Oct-16 00:32N 38°23' E 025°48'1515.0
2014-Oct-15 23:33N 38°09' E 025°54'1715.0
2014-Oct-15 22:27N 37°58' E 026°09'1314.5
2014-Oct-15 21:32N 37°49' E 026°21'2114.8
2014-Oct-15 20:08N 37°34' E 026°39'914.7
2014-Oct-15 19:33N 37°27' E 026°46'1514.5
2014-Oct-15 18:33N 37°14' E 026°55'2014.3
2014-Oct-15 17:09N 36°59' E 027°10'914.8
2014-Oct-15 16:33N 36°55' E 027°21'1312.6
2014-Oct-15 15:32N 36°43' E 027°19'1413.0
2014-Oct-15 14:27N 36°34' E 027°34'41014.7
2014-Oct-14 10:31N 32°57' E 034°36'15 0.9
2014-Oct-13 17:33N 32°47' E 034°49'1514.8
2014-Oct-13 16:33N 32°33' E 034°44'1515.1
2014-Oct-13 15:33N 32°18' E 034°39'54 1.2
2014-Oct-11 18:27N 33°10' E 034°21'3615.1
2014-Oct-11 16:04N 33°46' E 034°26'  
Track history (hours):
 
Tides and Currents Weather Stations Pressure Air Temp Water Temp Dewpoint Dewpoint Depression Visibility Wind Speed Wind Dir Waves Ship Positions

Alkin Kalkavan

Last reported at 2014-Oct-19 16:29 UTC. Time now 2014-Oct-22 00:09 UTC.
Position N 39°56' E 025°53'.

Length 150 m; draft 7.6 m.

Type: Ship. MMSI: 271000905.

Date/timePositionNaut miles runAvg speedWind from/ knotsBaromVisibWave heightAir tempDewpointWater temp
2014-Oct-19 16:29N 39°56' E 025°53'12914.4
2014-Oct-19 07:32N 40°40' E 028°31'1414.8
2014-Oct-19 06:33N 40°41' E 028°50'1515.0
2014-Oct-19 05:34N 40°43' E 029°10'1313.0
2014-Oct-19 04:33N 40°45' E 029°27'12 1.7
2014-Oct-18 21:26N 40°46' E 029°43'9 9.4
2014-Oct-18 20:29N 40°45' E 029°31'1010.4
2014-Oct-18 19:33N 40°43' E 029°19'1414.3
2014-Oct-18 18:34N 40°46' E 029°00'1414.0
2014-Oct-18 17:33N 40°51' E 028°43'  
2014-Oct-16 03:33N 39°09' E 025°46'1515.2
2014-Oct-16 02:33N 38°54' E 025°46'1515.4
2014-Oct-16 01:33N 38°39' E 025°47'1615.4
2014-Oct-16 00:32N 38°23' E 025°48'1515.0
2014-Oct-15 23:33N 38°09' E 025°54'1715.0
2014-Oct-15 22:27N 37°58' E 026°09'1314.5
2014-Oct-15 21:32N 37°49' E 026°21'2114.8
2014-Oct-15 20:08N 37°34' E 026°39'914.7
2014-Oct-15 19:33N 37°27' E 026°46'1514.5
2014-Oct-15 18:33N 37°14' E 026°55'2014.3
2014-Oct-15 17:09N 36°59' E 027°10'914.8
2014-Oct-15 16:33N 36°55' E 027°21'1312.6
2014-Oct-15 15:32N 36°43' E 027°19'1413.0
2014-Oct-15 14:27N 36°34' E 027°34'41014.7
2014-Oct-14 10:31N 32°57' E 034°36'15 0.9
2014-Oct-13 17:33N 32°47' E 034°49'1514.8
2014-Oct-13 16:33N 32°33' E 034°44'1515.1
2014-Oct-13 15:33N 32°18' E 034°39'54 1.2
2014-Oct-11 18:27N 33°10' E 034°21'3615.1
2014-Oct-11 16:04N 33°46' E 034°26'  

Dump ship's entire track history